Theta_e
317 316 316 315 315 314 314 313 312 311 309 323 324 324 329 322 321 330 332 333 330 326 317 319 317 314 312 315 314 314 313 313 314 314 314 313 314 314 313 311 313 313 313 312 312 313 310 311 309 310 310 309 310 310 311 314 317 318 315 315 317 325 313 308 308 311 313 314 315 316 316 314 317 316 315 314 311 311 308 307 308 304 305 303 303 301 310
316 316 316 315 314 314 314 313 312 311 309 314 319 328 325 325 323 325 332 333 331 322 312 311 312 312 314 313 311 314 313 313 312 312 313 313 312 312 312 313 314 312 315 314 311 314 309 310 310 309 311 309 311 311 311 313 315 317 316 315 316 310 315 309 306 306 308 308 310 310 313 314 313 312 316 315 315 313 312 310 310 302 306 305 302 297 309
316 316 316 315 315 314 314 313 312 311 309 311 318 326 326 324 325 326 327 332 327 317 317 315 312 312 312 312 311 312 311 312 312 312 311 314 313 313 310 312 313 313 315 313 314 314 313 309 311 311 311 310 312 311 311 313 316 319 321 327 322 314 312 311 303 300 298 298 300 303 306 312 313 315 314 315 312 312 308 304 308 300 312 307 303 305 314
317 316 316 315 314 314 314 313 312 310 309 306 319 326 326 319 314 319 322 325 322 320 321 319 315 312 313 311 311 312 310 312 313 314 312 313 313 313 313 313 314 312 312 312 312 312 314 313 310 311 310 311 311 310 311 311 314 320 321 323 320 313 313 313 310 306 304 308 309 310 313 311 309 312 313 313 313 313 311 309 304 302 307 305 313 310 311
317 317 316 315 315 314 313 312 312 310 308 307 319 329 325 322 316 316 315 319 319 317 319 315 316 313 316 311 311 310 311 311 312 314 311 312 312 312 311 311 311 310 311 309 310 312 311 313 313 310 310 311 311 311 310 311 315 321 318 322 316 314 309 310 313 310 310 311 309 311 311 309 310 309 310 311 312 313 310 306 306 314 307 301 313 315 310
318 318 318 316 316 315 314 312 310 309 308 308 321 324 325 314 319 322 321 316 310 312 313 317 314 314 315 311 312 310 310 311 309 312 313 314 314 311 311 311 310 309 310 310 308 310 311 312 309 310 310 311 311 310 311 311 313 317 313 316 315 311 307 309 311 311 312 313 311 312 312 311 311 311 311 311 312 312 310 311 313 313 308 305 312 315 311
318 319 319 318 317 317 316 313 310 308 307 310 330 324 323 324 322 320 322 318 314 315 315 316 315 314 315 312 312 310 310 309 310 311 311 312 311 312 308 307 308 309 310 311 309 311 307 308 311 310 309 308 310 310 309 310 313 312 312 313 318 313 308 309 312 311 311 311 312 312 311 311 311 311 312 312 313 312 313 312 313 312 312 313 313 313 312
318 319 319 318 318 317 316 314 311 309 306 322 328 322 322 318 320 315 317 318 315 315 314 314 314 312 314 312 310 310 310 308 310 311 311 309 309 312 308 307 309 310 310 311 309 309 310 310 309 310 310 308 310 309 309 309 312 311 309 310 314 311 308 313 311 310 308 310 311 312 311 310 309 311 312 312 312 312 312 312 313 314 312 312 312 312 311
318 319 319 318 318 317 316 315 312 310 309 326 323 321 323 323 324 323 323 313 313 317 314 314 314 311 314 312 310 312 311 310 312 310 313 311 309 309 307 309 310 312 311 311 310 312 312 311 310 311 310 308 309 309 309 310 309 309 309 310 310 310 311 314 311 306 307 308 309 309 310 309 309 309 310 310 311 309 311 311 313 311 311 312 312 310 309
318 319 319 318 317 317 316 315 312 310 311 324 322 316 325 328 326 325 322 314 314 312 313 314 313 310 312 313 312 312 310 312 313 310 312 313 313 312 310 311 312 311 312 310 312 314 314 314 313 313 312 313 312 313 313 312 311 310 308 311 309 311 310 308 307 303 305 308 308 308 307 307 304 307 309 312 312 313 313 314 314 313 314 310 307 308 315
318 318 319 318 318 317 316 315 313 311 318 319 321 318 320 319 320 325 322 314 312 313 314 312 313 311 312 310 310 312 311 311 311 310 310 314 313 314 312 311 312 311 311 313 317 317 317 316 315 315 314 315 315 315 315 314 314 312 311 309 309 312 309 307 308 302 306 307 308 308 304 297 300 311 315 314 311 312 310 310 312 314 315 312 314 315 317
318 318 319 318 318 317 316 316 314 313 312 321 325 320 321 323 324 324 324 313 310 314 313 311 312 312 311 310 312 311 310 310 311 313 312 314 314 316 316 315 316 313 316 320 317 315 316 316 316 318 316 316 315 315 315 314 314 316 313 311 309 309 309 307 308 304 304 307 306 302 296 298 310 316 316 316 314 314 312 313 313 314 316 316 314 314 315
318 318 318 319 318 317 317 316 314 312 311 317 324 319 322 325 322 323 321 317 311 313 311 310 314 313 313 313 312 312 313 314 315 316 316 315 313 315 316 316 314 314 320 317 315 316 312 311 313 313 313 314 313 314 313 313 313 314 315 315 313 309 308 310 307 308 307 303 302 294 298 309 313 314 316 316 315 312 312 309 313 314 314 315 314 315 316
318 318 318 318 318 318 317 316 315 314 312 313 322 322 322 323 323 326 322 317 312 313 313 312 313 313 313 313 313 313 315 315 317 318 314 316 315 314 316 317 317 319 320 318 317 317 312 312 308 308 308 311 311 309 310 312 312 312 312 314 315 313 312 309 306 309 300 304 304 304 311 309 309 309 311 312 309 311 309 303 308 315 316 315 314 315 316
318 318 318 318 318 318 317 317 316 315 313 310 321 324 323 322 324 323 329 327 312 313 316 311 312 313 313 313 314 313 313 314 314 314 316 316 316 316 317 318 320 320 319 318 316 318 314 312 306 305 307 306 302 305 310 308 311 313 314 313 315 316 312 313 305 306 308 302 300 304 303 299 305 311 313 316 314 315 314 311 309 316 315 316 316 315 316
318 318 318 318 318 318 318 317 316 315 313 310 323 324 324 323 325 327 326 321 318 309 311 315 314 314 314 313 315 316 313 313 315 314 314 315 315 317 319 320 320 321 319 317 319 315 313 308 306 306 304 305 310 307 305 308 307 310 313 313 313 313 313 313 306 305 306 302 298 298 297 304 310 312 313 315 316 315 316 308 303 314 316 316 316 315 316
318 318 318 317 318 318 318 317 316 315 314 311 317 323 324 324 323 322 324 325 319 311 315 315 314 314 315 313 314 314 316 314 315 310 311 313 314 315 317 319 321 320 317 315 314 312 310 309 310 310 310 310 307 307 309 307 306 305 309 311 309 309 310 309 305 304 304 302 299 298 306 303 310 312 314 315 316 314 312 298 298 310 316 317 317 315 316
318 318 318 317 318 318 318 317 316 315 313 310 317 321 322 326 325 326 327 323 315 312 316 317 316 313 312 314 314 314 316 315 315 316 314 316 315 314 315 316 315 316 318 313 315 310 309 309 306 306 305 310 313 309 302 308 305 307 306 306 306 306 307 305 303 303 304 300 300 304 307 311 313 313 315 316 316 312 301 296 306 316 317 318 318 317 317
318 318 318 317 317 317 317 317 317 315 313 310 318 326 323 324 325 327 327 324 319 311 315 318 319 313 313 316 314 315 314 314 315 314 313 312 314 314 315 316 316 313 315 313 313 310 308 309 312 310 307 308 309 305 310 305 306 307 308 306 306 306 305 306 305 302 302 304 300 302 308 314 315 317 315 318 311 303 300 311 320 318 318 319 319 318 318
319 318 318 317 317 317 317 317 317 316 315 312 315 321 323 326 325 325 324 321 319 314 316 318 320 314 317 315 313 313 314 315 313 313 311 310 318 316 314 310 316 314 313 315 309 312 307 306 308 310 306 308 310 312 308 309 312 310 308 307 307 306 304 304 303 306 303 303 301 298 292 311 314 314 314 317 307 310 316 318 318 320 319 318 319 319 319
319 318 318 317 317 316 317 317 316 316 316 314 314 321 323 326 326 326 326 326 327 313 313 320 323 320 321 318 318 316 316 313 315 314 315 314 318 316 307 309 311 313 311 312 308 308 310 308 307 309 313 311 309 310 306 307 307 313 313 309 308 311 305 304 306 308 303 301 298 297 310 315 317 315 309 315 316 319 320 319 318 320 320 319 319 320 321
319 318 318 317 317 316 316 316 316 316 315 314 314 325 322 323 326 325 324 326 327 320 319 323 324 323 322 322 322 322 320 319 318 319 317 316 319 316 314 316 314 315 316 317 309 308 311 312 312 308 306 308 311 309 311 304 303 309 313 312 305 314 312 311 305 312 307 305 309 313 318 318 319 319 318 319 321 321 321 320 319 318 319 322 320 321 322
319 318 318 317 317 316 315 316 316 316 315 315 317 323 320 321 323 327 327 330 327 325 325 324 324 322 322 322 323 324 323 323 322 322 321 318 315 316 316 315 314 317 318 318 316 314 313 311 310 313 310 311 309 307 308 310 307 308 307 311 314 315 316 318 314 310 314 315 316 317 317 318 318 319 321 320 319 321 321 319 318 319 321 321 320 321 322
319 319 318 317 317 316 315 315 316 316 315 315 316 322 320 322 323 325 329 326 327 317 319 322 320 314 314 314 319 322 323 321 322 324 326 323 316 313 316 317 317 319 318 320 319 317 315 315 314 315 310 311 314 306 304 303 308 311 309 308 312 316 315 313 309 313 305 301 314 314 316 318 318 319 320 322 322 322 321 320 320 321 321 322 323 322 322
319 319 318 317 316 316 315 315 315 315 315 315 316 321 324 324 324 324 322 323 320 319 311 313 314 316 319 321 321 321 321 323 323 325 323 325 322 316 313 317 320 320 317 320 323 318 318 311 309 311 307 313 316 308 312 309 307 312 307 310 310 311 317 313 312 310 308 309 314 316 317 318 320 319 318 318 320 321 322 322 322 322 322 324 323 323 322
319 319 318 317 316 315 315 315 315 315 315 314 315 321 321 320 324 327 327 324 324 322 313 310 313 319 320 320 317 319 323 323 320 321 320 320 321 321 320 322 321 325 322 321 320 317 314 314 315 313 309 309 317 311 309 314 313 314 311 311 316 315 315 307 312 309 311 313 315 317 317 317 318 319 320 321 321 320 321 322 322 322 320 321 322 323 322
319 319 318 317 316 315 315 315 315 315 315 314 317 325 324 325 325 322 319 319 319 315 314 311 314 315 318 316 320 323 322 322 320 319 319 319 320 321 322 323 321 321 319 316 317 316 315 314 312 309 313 311 317 315 314 312 312 310 310 313 317 313 309 313 311 308 306 308 312 315 309 309 315 317 319 319 321 321 321 321 320 320 320 321 320 321 323
319 319 317 316 315 315 315 315 315 315 315 314 319 325 327 325 324 324 324 322 319 313 312 313 312 316 320 317 320 322 321 321 319 318 318 318 319 319 319 319 321 316 316 316 313 314 313 310 308 314 313 316 314 309 316 315 314 311 311 314 315 313 315 313 308 309 306 315 317 319 317 315 317 318 319 321 321 321 319 318 319 319 321 321 321 320 321
319 318 317 316 315 315 315 315 315 315 314 315 323 325 326 328 327 324 322 324 325 320 320 318 317 316 312 314 323 322 322 320 319 318 318 318 318 319 319 319 318 316 316 315 316 317 314 313 318 314 314 319 315 310 311 308 308 306 312 316 316 320 319 317 317 315 315 316 318 319 317 315 317 319 320 320 322 320 318 319 320 320 320 321 321 321 321
319 317 316 316 315 315 315 315 315 315 314 321 324 326 322 323 326 326 321 323 323 323 320 314 309 315 321 320 318 320 319 320 319 319 318 317 318 319 319 320 319 318 318 316 316 312 315 314 314 316 317 322 316 313 309 308 307 310 315 318 319 319 319 321 321 317 315 319 320 321 320 319 320 320 320 321 322 321 319 320 322 322 322 323 321 322 323
318 317 316 316 315 315 315 315 315 315 315 323 324 319 315 313 322 324 320 323 326 323 322 318 317 318 316 320 322 318 319 319 319 318 318 318 318 319 319 322 320 320 316 316 316 314 318 313 314 315 319 319 320 313 309 308 306 309 315 318 320 319 319 320 321 322 320 320 321 321 321 320 321 321 321 322 321 322 321 322 323 323 323 323 323 324 323
318 316 316 316 315 315 315 315 315 315 320 322 320 318 318 318 322 323 321 321 325 324 322 315 312 313 313 315 318 320 319 319 318 319 319 320 317 319 320 319 319 320 319 317 317 318 315 317 316 316 317 321 321 313 312 310 306 310 315 318 320 321 322 321 321 321 321 322 320 318 317 318 320 318 317 321 321 322 322 323 323 323 324 323 323 323 324
317 316 316 316 315 315 315 315 315 315 321 320 315 314 315 314 314 317 320 325 324 323 323 319 313 313 311 314 317 317 319 318 317 318 318 320 318 319 317 319 319 319 319 319 314 314 316 317 317 315 320 323 317 314 312 308 312 315 317 319 319 321 321 322 322 322 321 321 320 315 314 316 318 321 322 322 323 322 323 321 321 322 322 321 320 321 322
316 316 315 315 315 315 315 314 314 313 313 317 321 322 324 317 319 315 322 325 322 324 323 320 313 310 311 316 312 316 319 315 316 317 315 320 323 318 317 317 318 316 316 315 316 317 316 317 314 315 318 317 318 313 308 312 316 317 318 319 321 321 322 321 320 320 321 321 321 321 321 322 323 323 323 323 322 323 323 322 321 320 320 320 319 321 323
316 315 315 315 315 315 314 314 321 322 322 322 322 327 323 316 315 317 318 324 320 320 320 318 320 311 309 309 310 314 318 316 315 317 315 319 321 319 317 315 316 312 317 320 316 316 314 316 319 313 310 316 313 308 310 315 316 318 319 319 320 320 320 318 318 320 320 322 321 322 322 322 321 320 321 321 320 322 321 321 322 321 319 319 320 322 325
316 315 315 315 314 314 321 317 320 322 320 320 323 323 320 321 317 324 325 327 322 318 315 317 316 311 310 305 306 314 318 314 317 318 319 319 316 319 319 315 310 314 321 316 312 314 312 320 317 309 315 310 309 312 315 318 317 318 318 318 320 320 319 318 318 319 320 321 321 321 321 321 320 320 321 320 320 321 321 320 321 321 320 320 322 324 326
315 315 314 314 319 324 321 322 326 323 323 323 321 321 319 321 325 325 325 324 327 325 318 316 311 312 313 312 315 315 315 309 316 314 315 313 313 318 315 314 309 316 314 312 312 312 317 323 315 309 310 306 313 320 322 324 321 319 319 320 321 322 321 321 321 321 319 318 318 319 319 319 319 319 318 318 319 320 320 320 320 321 320 320 322 322 324
314 313 319 320 321 316 317 321 323 322 319 320 322 322 323 320 319 322 321 319 323 321 320 316 314 316 317 314 308 316 315 312 316 311 312 314 312 312 315 312 314 313 306 309 313 322 320 317 313 310 311 318 322 324 324 325 325 325 324 322 321 321 322 322 321 320 318 316 316 317 318 317 317 318 318 318 320 320 320 321 322 322 322 322 323 324 325
313 319 319 320 318 315 317 324 323 317 321 323 322 317 317 321 318 314 315 318 316 314 317 316 314 316 314 312 312 318 317 313 310 311 307 314 310 308 312 305 314 311 307 306 313 321 310 310 311 308 307 316 318 321 325 325 325 324 324 324 323 323 323 322 322 321 319 318 318 319 318 316 316 317 319 319 320 321 321 321 321 321 322 323 325 326 326
318 316 317 318 315 319 322 323 318 321 323 317 319 317 313 318 311 308 316 309 307 315 316 311 316 317 316 314 311 310 319 315 309 307 308 310 313 308 313 310 313 308 303 304 309 315 309 304 309 308 306 313 320 323 325 324 323 324 325 325 325 325 326 324 323 323 323 322 321 320 320 319 319 319 319 319 319 319 319 321 322 322 323 324 326 327 327
316 316 316 316 320 319 321 322 324 322 318 314 315 315 313 306 314 316 312 307 306 311 317 315 314 314 314 315 315 311 318 320 319 316 313 309 317 314 309 306 315 306 304 303 313 314 311 307 306 304 311 315 319 323 324 323 323 323 325 326 327 327 326 324 323 322 321 320 320 320 320 320 320 321 321 321 320 320 320 321 322 323 325 327 328 328 328
316 315 317 316 316 318 320 321 320 317 315 316 310 304 307 310 313 311 313 304 305 311 311 314 310 312 311 315 314 315 315 320 319 315 311 307 313 311 308 310 311 304 301 311 315 311 308 302 302 304 314 320 323 325 324 322 323 323 324 327 326 326 324 322 321 321 321 321 321 320 321 321 322 322 322 322 322 322 323 323 324 326 327 329 330 330 330
311 314 316 316 317 318 321 311 316 315 301 301 300 295 304 302 307 307 308 311 315 313 315 319 318 317 316 319 314 319 318 320 316 314 310 308 313 313 307 306 305 299 306 313 310 305 303 302 302 306 316 320 323 324 324 324 324 324 324 324 326 325 323 321 321 320 321 321 321 321 321 322 322 322 323 324 322 322 324 325 327 328 330 330 330 331 332
317 316 314 316 315 316 314 296 315 308 299 302 297 292 301 301 305 308 306 308 311 312 314 311 311 311 307 314 314 313 314 317 318 315 311 314 309 307 305 301 304 310 311 306 305 302 303 306 307 312 318 320 322 324 324 324 324 322 321 322 323 322 322 321 321 320 320 321 322 322 322 322 322 323 323 324 324 324 325 327 329 330 330 331 331 332 333
313 312 314 310 303 311 305 293 313 303 294 300 303 304 304 302 306 307 307 314 313 311 315 317 313 313 311 314 315 313 313 310 317 310 307 310 306 307 304 303 309 309 303 302 304 304 305 303 311 315 318 318 320 322 324 323 324 320 320 320 320 320 320 319 319 319 319 320 321 321 321 322 323 323 324 325 326 327 328 328 330 330 331 331 332 332 333
311 305 303 296 292 298 299 296 298 296 307 309 307 308 308 308 310 310 313 315 314 314 312 313 314 314 310 314 311 310 313 311 308 309 310 308 303 302 309 311 308 303 302 301 299 299 302 307 310 313 317 318 319 321 322 323 323 325 321 319 319 319 319 319 319 319 319 320 321 321 322 322 322 323 325 327 328 329 330 331 332 332 332 331 331 332 333
311 312 307 306 297 300 309 297 301 308 310 311 312 312 311 313 314 314 315 316 314 316 316 317 316 315 310 309 310 310 311 310 306 310 309 304 302 305 309 305 300 301 298 298 300 301 305 309 313 317 319 319 319 320 319 320 320 320 320 321 320 319 319 318 319 319 320 321 321 321 322 322 323 325 326 326 327 329 329 332 333 334 332 331 332 333 333
300 311 310 295 293 301 300 306 313 312 312 313 313 313 314 316 314 312 315 317 317 315 314 312 309 310 309 312 312 308 309 310 305 307 309 307 306 303 302 301 300 303 303 301 302 306 309 313 315 317 319 319 319 318 318 318 319 319 319 319 319 318 318 319 320 320 321 321 321 321 322 323 324 325 326 327 328 329 330 330 332 333 333 333 334 334 332
311 307 300 301 308 307 308 312 310 307 310 312 313 313 313 312 312 314 315 318 315 315 316 314 311 311 307 310 308 306 305 308 300 300 306 304 301 297 298 297 299 298 305 305 306 309 311 316 318 319 318 318 319 318 318 318 319 318 318 318 319 320 320 320 320 321 321 321 321 322 323 324 325 326 327 327 326 327 328 330 332 333 334 334 333 333 332
304 303 307 307 307 308 311 313 310 307 310 311 311 311 313 312 313 314 317 315 317 314 313 311 314 309 309 309 300 305 305 307 306 305 303 301 302 303 300 297 300 300 304 308 309 312 315 316 319 318 318 318 319 318 318 318 318 319 319 320 321 322 321 321 321 321 321 322 322 323 324 325 325 325 326 326 326 329 330 331 333 333 334 335 334 334 331
311 309 307 313 308 307 309 305 305 306 308 309 312 312 313 312 314 313 317 316 314 313 310 307 308 308 302 302 303 295 302 308 303 302 303 302 305 303 301 300 303 306 307 311 312 313 315 317 316 316 318 318 318 318 319 320 319 319 320 320 321 321 322 322 321 321 322 322 323 323 324 325 325 327 328 330 330 329 330 330 331 334 335 335 335 334 332
300 299 305 310 312 312 312 312 312 311 311 313 313 314 315 313 314 317 318 317 313 309 307 311 308 303 298 297 304 308 309 305 303 304 301 304 306 303 303 305 307 309 310 310 312 314 314 316 319 319 319 318 319 320 321 321 320 320 319 319 318 319 320 320 321 322 321 321 323 323 325 326 327 328 329 330 329 327 325 325 327 332 334 334 335 335 333
Wind_Speed
23 24 25 26 27 27 27 27 26 26 25 8 6 5 4 3 5 3 1 3 5 6 3 3 3 3 5 4 4 1 4 5 5 4 4 3 4 5 7 7 2 5 4 1 4 0 3 1 1 6 6 7 7 6 6 4 4 7 3 4 3 4 4 2 1 0 4 5 4 3 1 3 6 5 6 5 5 6 6 7 6 7 9 7 6 9 5
23 23 25 26 27 27 28 27 26 24 19 6 7 5 1 3 5 4 4 4 4 6 5 7 6 6 6 7 9 7 8 8 7 8 9 6 5 6 3 5 9 5 4 2 2 2 2 2 4 4 3 5 3 5 6 6 1 5 3 4 5 6 3 5 6 5 6 7 6 6 2 4 2 4 5 5 5 5 6 7 3 8 2 7 5 9 5
23 23 24 26 27 27 28 28 26 24 18 7 4 3 2 3 2 2 3 4 4 4 4 2 7 7 6 6 6 5 5 5 7 8 8 6 5 1 6 5 3 4 3 3 1 2 6 4 1 3 4 6 2 5 7 7 3 5 6 6 2 4 3 3 6 8 10 9 3 3 1 3 3 5 4 5 7 7 7 6 1 5 4 4 6 2 6
22 23 24 25 26 27 28 29 28 24 19 9 4 4 3 4 4 3 3 1 2 3 1 3 4 7 7 6 5 3 7 5 6 4 9 7 7 8 3 2 2 3 3 3 2 3 3 3 5 5 5 5 4 4 4 6 6 5 6 4 2 1 2 2 3 6 7 5 5 3 4 2 1 5 4 5 5 7 6 5 8 6 6 7 5 5 4
22 22 24 25 26 27 28 30 30 27 19 8 3 4 3 3 1 2 4 4 1 3 1 3 1 4 2 2 1 5 5 4 5 8 2 7 5 5 7 5 1 3 3 2 3 3 4 6 6 3 2 4 3 5 2 4 7 3 3 2 2 2 3 4 2 3 3 3 4 3 3 2 2 3 5 5 6 5 5 5 6 6 6 3 6 4 6
22 23 23 24 25 27 28 30 31 29 25 11 4 2 4 2 2 1 4 3 3 6 5 1 3 4 1 4 2 3 3 2 4 5 6 3 5 3 4 6 6 5 5 3 2 3 3 2 3 3 2 2 5 5 4 3 3 5 2 2 4 4 3 5 2 6 6 5 5 5 4 4 4 3 4 5 4 5 6 6 4 5 4 6 4 4 6
22 22 23 24 25 27 28 30 32 31 29 18 4 3 4 3 3 3 2 2 4 5 5 1 2 5 3 4 1 4 3 5 5 4 2 3 5 7 1 5 6 5 2 3 1 2 5 5 3 2 2 2 1 3 5 4 3 0 2 3 2 3 1 3 4 7 6 5 5 4 6 6 5 5 4 4 4 5 5 5 5 5 4 3 3 1 3
21 21 22 23 25 26 27 29 31 31 32 17 6 9 5 4 4 3 1 2 4 3 2 3 4 5 1 2 3 2 4 6 5 4 5 2 4 3 3 4 5 5 4 2 1 5 6 7 2 3 3 3 1 2 4 4 2 2 1 0 4 7 3 5 6 5 5 5 4 5 6 5 6 5 3 2 3 4 4 3 3 2 2 3 2 3 3
21 21 22 22 24 25 26 27 29 31 29 7 9 8 7 3 3 4 4 3 4 1 2 3 4 5 3 3 4 3 5 7 7 7 6 6 4 2 4 3 4 4 4 6 6 5 4 4 6 3 4 3 4 4 4 3 2 2 2 1 3 5 4 5 5 5 6 5 5 6 4 3 3 4 3 2 1 1 3 3 5 6 4 4 5 7 4
21 21 21 22 22 23 24 25 27 29 27 6 7 8 7 4 3 3 5 0 1 0 2 2 5 3 4 3 5 1 7 6 3 5 5 5 5 4 2 2 2 4 3 5 6 5 3 4 4 3 2 1 2 1 2 3 2 1 3 0 2 1 5 5 5 6 3 8 6 5 4 3 8 5 4 4 4 4 4 4 3 5 5 6 6 6 6
21 21 21 21 21 21 22 23 24 27 17 10 8 8 7 6 5 4 4 1 3 2 2 3 3 4 1 2 4 2 6 3 1 4 4 2 6 2 1 1 4 3 5 6 7 4 2 2 2 2 2 3 4 5 5 6 3 2 2 2 3 4 4 3 1 6 4 7 6 4 4 8 1 7 5 4 4 2 4 3 4 4 5 5 4 5 6
20 20 21 21 20 20 21 21 22 23 19 7 6 6 6 6 5 5 4 1 3 0 1 5 4 3 3 4 1 4 3 1 2 3 5 5 6 2 2 2 4 1 5 4 1 5 7 6 6 6 8 8 8 8 8 8 7 3 1 2 5 4 3 2 2 4 3 6 5 5 9 1 7 5 5 3 3 2 2 2 0 1 3 3 6 5 7
22 21 21 21 20 20 20 20 20 20 21 11 6 7 7 5 4 4 5 3 4 2 3 4 3 4 4 4 5 5 4 4 5 5 7 6 5 4 5 5 5 5 4 2 5 8 8 9 8 7 7 6 6 8 9 9 8 6 5 3 2 3 4 3 4 2 2 5 5 7 3 6 6 6 4 5 1 2 6 7 8 1 2 5 6 7 8
21 21 21 21 20 20 20 19 20 20 22 16 5 6 7 8 5 4 4 2 4 4 5 7 4 5 4 4 4 6 5 6 5 3 5 2 3 4 4 5 5 3 1 5 4 6 6 6 6 6 6 6 5 4 6 8 9 7 7 5 4 3 1 4 3 3 7 2 5 2 6 6 7 6 4 3 4 5 5 7 2 6 2 4 7 8 8
21 21 20 20 20 20 20 20 20 20 21 21 6 4 6 8 5 4 3 4 4 3 3 1 4 4 2 3 1 4 3 4 5 4 4 2 1 4 4 4 3 1 5 6 5 4 3 4 4 5 5 5 5 5 4 3 4 6 5 5 4 2 5 4 5 3 3 6 6 5 5 7 6 5 7 2 0 2 4 4 6 6 1 3 6 7 9
21 21 20 20 21 21 20 19 20 19 20 22 6 3 5 8 6 4 4 4 2 4 5 5 4 3 1 2 2 4 1 2 0 2 5 3 2 4 3 3 2 2 5 4 2 3 3 5 3 5 3 3 4 1 4 3 4 3 3 3 3 2 0 2 6 4 4 6 7 6 7 5 4 5 2 4 1 2 3 6 4 5 5 6 6 9 9
20 21 21 21 21 22 19 19 19 20 19 20 8 5 4 9 7 5 4 2 2 6 4 3 3 2 2 3 4 3 1 2 0 3 3 5 3 1 2 2 2 3 5 5 4 4 5 5 3 3 3 2 3 1 4 3 3 5 5 3 1 0 1 3 7 6 4 6 5 5 4 3 5 5 2 4 4 2 4 8 3 2 6 6 7 9 10
18 20 21 21 20 21 20 19 20 19 20 21 10 4 5 6 7 5 4 3 2 4 5 4 4 2 2 4 3 3 2 2 4 1 4 3 2 2 2 1 3 3 2 6 4 6 5 5 5 5 2 4 2 2 3 3 2 2 2 3 1 0 0 2 3 3 2 3 4 2 5 6 5 4 3 2 2 3 7 5 5 3 5 6 7 9 10
17 19 20 20 20 20 21 21 20 20 19 21 14 5 1 7 7 6 4 3 3 3 4 5 2 5 4 1 4 3 4 4 4 4 2 5 2 3 4 1 3 2 3 3 4 5 5 3 2 3 2 5 4 1 2 4 3 3 1 4 4 3 1 1 3 3 2 1 4 1 5 6 4 3 2 1 5 5 3 4 3 5 7 7 8 9 9
15 17 19 20 19 19 20 21 22 21 20 21 13 5 5 5 6 6 5 3 3 5 4 4 5 6 3 4 2 1 1 3 2 4 3 3 3 4 4 5 4 3 3 3 5 1 4 3 2 1 5 4 2 2 2 4 2 2 1 2 4 3 4 1 1 2 3 3 4 1 2 5 3 3 4 1 7 6 2 5 4 5 7 8 8 8 9
13 16 18 19 18 19 19 20 21 21 21 20 16 6 5 6 7 5 4 4 3 3 5 3 2 4 4 6 6 6 7 6 5 3 3 3 4 3 4 2 4 2 1 1 3 3 2 1 3 1 4 2 5 4 1 5 4 2 3 1 2 2 5 1 2 2 4 3 4 1 6 5 2 4 5 5 4 4 4 4 5 5 6 6 8 7 8
11 14 17 18 18 18 18 19 20 20 22 20 19 6 5 8 7 6 3 4 3 4 5 3 3 3 4 4 4 5 6 6 6 5 5 2 2 4 3 1 3 2 2 3 2 2 2 2 1 3 4 4 3 0 4 5 4 6 2 3 4 3 4 6 4 3 4 5 6 5 3 3 3 3 2 2 2 2 3 4 6 7 5 6 6 8 9
10 13 15 17 17 17 18 18 19 19 21 21 15 5 7 10 9 10 5 3 2 1 2 3 2 3 3 4 3 3 4 3 3 3 4 6 2 1 3 2 4 2 1 2 4 4 3 3 1 2 3 1 1 5 3 4 3 5 4 2 5 4 4 2 4 3 1 1 5 3 1 0 1 1 1 3 4 4 5 6 6 5 6 6 7 8 10
9 11 14 16 17 16 17 17 18 17 19 20 14 6 7 8 9 10 3 3 3 3 3 2 5 2 4 4 3 1 2 1 3 4 3 3 4 3 4 3 2 3 2 3 3 3 3 2 3 2 1 3 2 4 3 5 2 4 2 5 3 3 2 2 3 6 3 2 5 2 2 2 2 2 2 1 2 4 5 6 5 6 7 8 8 9 10
11 10 13 15 16 16 16 16 17 16 15 19 16 6 6 5 9 8 7 2 1 3 0 4 3 5 3 3 2 2 4 2 2 3 1 1 3 6 6 5 4 4 5 2 2 1 1 2 4 3 4 2 4 1 4 2 4 3 5 5 4 6 3 5 2 2 4 3 4 0 2 1 2 3 2 2 3 2 4 5 6 7 8 8 8 9 10
11 11 12 14 15 16 16 16 16 14 14 16 13 5 5 6 8 8 3 3 3 3 3 3 5 3 1 4 2 5 3 2 2 3 5 5 6 6 5 3 3 1 2 0 2 1 2 2 1 2 3 4 4 2 4 5 4 2 6 5 5 6 5 1 3 4 3 4 3 2 2 1 3 2 1 3 3 4 5 6 8 8 9 10 10 9 10
11 11 12 14 15 15 15 15 14 13 14 15 9 3 3 3 5 8 7 5 5 4 4 2 4 4 1 4 3 1 1 1 1 2 3 4 4 4 3 3 3 2 2 4 3 3 1 2 1 3 3 5 0 4 3 4 2 3 3 5 3 4 4 3 3 5 2 3 3 1 4 2 3 2 2 3 4 4 6 7 8 8 9 10 11 11 10
12 10 10 11 13 15 15 15 14 14 14 15 8 4 3 2 3 4 6 6 5 4 5 2 2 4 0 4 2 1 2 1 1 4 3 4 3 3 3 3 0 1 1 1 4 2 2 3 5 4 4 4 4 4 1 3 1 2 1 4 3 4 4 3 3 4 3 5 3 0 2 3 3 3 3 4 4 5 6 7 8 9 10 10 11 13 12
10 9 9 10 11 13 13 15 14 14 15 13 5 4 4 3 0 2 5 5 4 4 4 3 2 5 2 5 1 3 2 0 1 3 5 5 5 5 5 4 3 2 2 3 4 3 4 5 1 2 3 3 4 4 4 4 3 1 6 4 1 4 2 2 4 3 1 2 2 1 2 3 3 3 4 4 3 6 7 8 9 10 11 11 12 12 13
10 8 9 11 13 13 14 14 14 13 15 8 4 4 4 4 1 3 5 5 5 3 4 3 5 3 3 2 3 3 3 3 3 4 4 5 5 4 4 3 4 2 3 2 1 4 3 4 4 5 3 2 3 1 3 1 3 6 3 1 1 1 2 2 2 4 3 3 1 1 2 3 3 3 4 3 3 5 7 9 10 11 11 11 13 13 12
9 8 9 12 14 13 13 13 12 13 13 5 4 3 3 0 4 2 6 5 3 4 3 4 2 4 4 2 1 2 2 2 3 4 5 4 4 3 3 1 3 3 2 3 2 4 2 4 3 4 2 4 4 3 1 3 2 4 4 2 2 3 2 2 1 1 1 1 0 1 3 3 3 5 3 1 6 8 9 9 10 10 10 12 12 12 11
9 8 10 12 13 13 14 12 11 11 6 4 4 4 4 4 5 8 7 5 4 4 4 4 3 5 3 4 2 1 1 2 3 3 3 1 3 1 3 2 4 3 4 2 3 3 3 3 1 4 2 3 5 1 1 3 1 5 4 2 3 2 1 2 2 1 1 0 3 5 5 3 1 5 6 8 9 9 10 10 10 11 11 11 11 11 11
8 9 11 13 13 13 13 13 11 9 5 7 10 9 11 12 11 9 5 4 4 3 2 4 3 3 3 5 4 3 1 4 4 4 4 0 2 2 3 0 2 3 2 2 2 1 2 1 2 3 4 0 3 2 4 0 5 5 2 2 3 3 2 1 0 0 1 1 3 5 4 5 6 6 7 8 9 9 10 11 11 11 11 12 13 12 11
9 9 11 13 13 13 14 15 14 10 7 4 4 4 4 0 5 4 5 3 3 2 2 3 3 5 3 4 6 5 3 4 3 2 3 3 1 4 2 3 1 2 2 3 4 3 2 2 2 4 3 3 2 3 3 5 3 1 2 2 3 3 2 2 2 2 2 2 2 3 4 5 6 7 7 8 10 10 10 10 11 12 13 12 12 12 12
8 10 12 14 14 13 14 11 4 5 3 3 2 4 4 3 5 2 3 3 3 3 3 3 3 3 5 5 5 5 0 5 3 1 1 4 1 1 2 3 3 4 5 2 3 2 2 1 2 4 3 2 3 4 2 4 3 2 2 3 3 2 3 4 2 1 2 1 3 4 5 6 7 7 8 9 10 10 11 11 11 12 12 12 12 12 12
9 11 14 14 17 13 6 4 4 4 4 2 2 5 4 4 5 3 2 2 3 3 3 2 3 6 3 6 6 4 2 2 2 2 2 1 4 1 2 2 4 3 1 4 2 3 2 3 4 2 4 5 2 2 3 2 1 2 2 2 3 2 1 2 2 1 1 3 5 5 6 7 8 8 8 9 9 10 11 12 12 11 12 11 12 12 11
10 11 14 16 9 4 5 2 2 2 3 4 8 11 9 6 2 2 4 3 4 2 4 2 5 4 3 2 4 3 4 4 3 3 3 3 1 1 2 3 2 4 3 3 4 4 4 1 4 3 4 4 3 3 3 1 2 2 2 2 2 1 1 0 1 3 5 6 6 5 6 8 8 7 9 10 11 11 11 11 11 11 12 13 12 12 12
9 11 7 5 4 5 3 3 1 3 8 7 6 4 4 4 3 3 3 4 3 2 3 3 3 1 1 4 3 3 4 2 2 3 3 1 3 3 1 3 2 1 4 3 3 2 1 3 4 5 2 4 3 3 3 3 2 2 2 2 2 2 1 0 1 3 5 7 6 7 8 8 9 9 10 11 11 11 10 10 10 10 10 11 11 12 12
8 5 5 4 3 3 1 3 3 5 4 3 4 3 2 2 2 3 3 2 2 4 3 4 2 2 3 4 4 2 3 1 4 3 3 4 3 2 2 4 4 3 2 3 4 3 5 4 3 4 4 5 4 5 4 3 3 3 3 2 2 1 0 1 2 4 5 6 7 8 8 8 10 11 10 10 10 10 10 10 10 11 11 11 11 11 12
4 5 3 3 5 2 2 3 3 3 3 2 2 3 2 2 4 1 2 3 2 1 3 4 1 1 2 2 4 5 2 4 3 2 2 3 1 3 2 2 3 4 4 4 4 4 4 4 3 5 4 7 6 6 5 4 4 3 2 2 1 0 1 3 3 3 5 6 7 7 8 9 10 10 11 10 11 11 11 11 11 11 11 11 11 11 11
2 3 3 3 4 3 3 5 3 3 3 3 2 2 2 2 3 1 2 4 3 4 1 2 4 3 3 2 2 2 3 1 2 2 2 2 2 2 4 2 2 3 2 3 4 3 3 5 3 5 5 5 6 6 5 4 4 3 2 1 0 1 2 3 4 4 5 6 6 7 8 9 10 10 10 11 11 11 11 12 11 11 12 12 11 11 10
3 3 4 5 5 5 4 3 3 3 2 2 2 2 2 1 1 3 3 3 3 4 5 4 6 5 5 0 3 2 4 2 1 1 2 3 2 3 1 1 3 4 2 4 1 3 3 5 4 4 7 6 6 5 5 5 4 3 2 1 0 1 2 3 5 6 5 6 6 7 8 9 10 9 9 10 10 11 11 11 12 12 11 10 9 9 9
3 5 4 4 3 3 2 2 3 2 1 1 2 0 2 3 4 4 5 2 1 2 5 1 4 3 4 2 4 3 3 0 2 2 2 2 2 2 3 2 2 4 2 3 4 3 5 4 4 3 7 7 6 6 5 4 3 2 1 0 0 1 3 4 5 6 6 7 7 7 7 9 9 9 9 10 10 11 10 10 10 10 9 9 9 8 8
2 2 4 3 4 3 2 1 2 2 0 2 2 3 5 5 5 4 4 4 5 4 6 6 6 6 5 0 0 4 3 3 1 1 1 1 3 2 2 3 3 4 1 4 3 5 4 2 2 6 6 6 5 5 5 4 3 2 1 0 1 2 4 5 5 6 6 7 7 7 7 8 9 9 9 9 9 10 10 10 9 9 9 9 8 7 6
3 4 4 3 1 2 2 1 2 2 3 5 4 4 4 4 5 7 2 5 3 5 7 3 6 4 4 4 1 2 2 2 2 4 1 2 3 2 4 1 2 2 4 4 3 3 1 5 3 5 7 6 6 6 4 3 2 1 0 2 3 3 4 5 6 6 6 7 8 8 8 9 9 9 9 9 9 8 8 9 9 8 8 7 7 7 6
5 3 3 2 1 2 2 1 2 2 4 3 4 4 4 1 1 4 4 1 2 5 6 6 4 4 4 1 2 3 2 1 3 1 1 2 3 3 2 2 2 4 3 3 4 4 3 0 3 5 6 6 6 5 4 3 3 2 2 3 3 5 6 6 6 7 7 7 8 8 8 9 9 9 9 9 9 9 8 8 8 8 7 7 6 6 6
2 1 2 1 1 1 3 2 5 3 1 3 2 1 1 3 2 3 2 1 1 4 5 3 2 1 2 4 3 3 2 1 1 3 2 3 2 3 1 4 4 4 3 3 3 3 2 2 2 5 6 6 6 4 4 3 2 2 2 3 4 5 7 7 7 7 7 8 8 9 8 9 9 8 8 9 9 9 9 9 8 8 7 6 6 5 6
2 1 2 2 3 3 5 5 1 0 2 1 1 0 1 1 2 3 3 1 0 4 6 6 5 5 4 2 3 1 3 1 2 3 1 2 1 3 1 3 4 2 2 3 1 2 2 2 4 6 6 5 5 5 4 3 3 3 3 4 5 6 6 7 7 7 7 8 8 8 9 9 8 8 8 9 9 9 9 8 8 7 6 5 5 5 6
2 2 2 2 2 2 4 1 3 5 3 3 1 2 3 4 3 3 2 2 3 4 3 4 4 3 3 1 1 3 3 2 2 2 3 3 3 3 3 3 2 3 3 3 2 2 1 3 3 4 5 5 4 3 3 3 2 2 3 5 6 6 6 7 7 7 7 7 8 8 9 8 8 8 8 8 9 9 9 9 8 7 5 5 5 5 6
2 2 2 3 3 4 2 1 4 4 4 3 4 3 3 3 3 3 2 4 3 4 3 3 1 1 3 2 1 2 0 2 0 2 3 4 3 2 2 4 2 2 1 2 0 1 1 2 3 4 4 4 4 4 3 2 1 2 3 5 5 6 7 8 8 8 8 8 8 8 9 8 8 8 8 8 9 10 10 9 8 6 5 5 5 5 5
2 3 3 4 5 1 4 6 6 5 4 4 3 2 2 2 2 4 0 1 5 5 6 5 4 3 2 1 1 1 2 2 2 4 3 2 2 3 3 3 1 1 2 3 2 1 0 1 2 3 3 4 4 3 1 1 2 3 4 5 6 7 7 8 9 8 8 8 8 8 8 8 8 8 8 8 9 10 10 9 6 5 5 5 4 4 5
1 2 5 7 4 2 3 2 3 3 1 2 2 3 1 3 2 3 1 2 5 7 6 4 4 2 1 2 2 2 3 3 3 1 4 3 2 4 2 2 3 3 3 2 1 1 1 1 1 2 2 1 1 2 2 2 3 4 5 7 8 8 8 9 8 8 8 8 7 7 8 8 9 8 8 9 10 10 9 8 7 6 5 5 4 4 5
Wind_Direction
345 344 343 343 343 342 342 345 346 350 345 342 5 300 226 248 52 57 194 182 282 276 177 144 185 87 83 163 81 70 74 29 33 39 3 87 23 63 46 20 356 60 7 83 115 290 106 322 143 110 106 82 52 26 355 349 265 265 124 167 111 280 269 241 192 130 142 154 151 142 146 244 222 106 14 350 2 350 329 329 330 300 295 271 265 254 97
346 345 345 345 344 343 342 344 348 350 3 332 303 272 53 67 119 141 162 220 257 271 176 166 125 107 109 98 89 62 59 35 48 44 40 26 58 56 75 92 31 51 3 5 102 347 191 113 152 136 140 111 50 21 11 334 348 309 58 311 81 262 115 298 292 243 189 179 184 194 173 241 36 5 23 360 328 322 320 301 285 274 2 328 314 288 117
347 347 347 347 346 344 343 344 346 351 353 342 293 323 23 115 95 106 130 212 243 280 14 142 138 127 129 124 105 128 81 36 31 41 51 42 43 201 72 32 4 62 14 76 57 59 342 135 22 32 139 100 125 56 12 5 52 30 20 338 324 283 24 297 294 307 304 299 311 49 118 69 72 33 8 20 348 347 317 264 338 287 57 317 288 346 101
349 349 349 348 348 346 345 343 345 348 354 332 260 312 263 191 179 144 152 210 162 76 331 331 131 133 138 116 76 85 111 116 60 12 73 34 63 49 81 123 310 73 208 129 92 66 44 300 150 191 151 131 116 42 34 33 42 48 5 296 268 63 66 1 308 296 320 30 40 67 301 284 301 49 17 12 4 343 296 285 262 293 4 292 67 353 329
350 351 351 350 350 349 348 345 342 345 350 349 297 276 317 316 276 147 164 153 52 107 172 130 195 127 357 133 359 102 80 100 82 360 76 36 34 66 39 29 282 40 286 97 113 59 100 85 123 73 102 89 83 94 22 70 53 319 224 341 252 187 196 108 113 73 74 90 93 54 7 39 55 333 22 19 11 14 3 354 8 350 297 266 46 349 310
353 352 353 353 352 352 351 349 343 343 342 346 264 321 2 252 82 319 10 302 134 175 140 4 111 71 279 86 287 116 122 114 109 99 61 49 26 316 110 51 48 31 16 318 236 125 106 147 123 142 69 206 149 169 122 67 29 267 131 196 279 290 292 117 155 102 93 86 85 78 80 67 71 66 44 41 35 34 42 49 38 335 344 351 32 345 331
354 354 355 355 354 354 355 352 347 343 338 332 282 319 69 11 72 34 326 277 46 12 47 1 122 109 63 107 125 137 124 96 45 11 79 40 53 354 34 52 38 33 25 311 85 60 230 148 96 16 75 37 291 205 162 113 37 11 132 97 9 257 125 133 131 121 111 105 104 111 116 116 108 92 75 67 64 60 58 64 41 39 39 6 21 327 5
354 354 356 357 357 358 358 355 352 343 340 321 59 30 337 34 329 98 135 71 76 57 155 160 185 130 351 194 74 52 119 110 116 65 353 96 63 5 76 77 48 37 42 21 67 65 36 21 92 80 328 158 336 34 5 8 68 28 90 290 115 277 120 195 148 149 123 113 132 131 134 136 116 118 131 107 69 69 49 53 48 277 83 351 358 308 337
354 354 357 358 359 360 1 359 358 347 341 34 34 54 18 5 354 329 300 145 36 348 125 177 172 146 146 140 130 136 96 93 81 76 33 21 54 44 87 85 95 52 65 75 70 48 38 38 51 49 3 2 46 318 84 347 327 68 133 179 129 252 120 201 202 226 152 166 166 171 144 167 126 105 83 63 287 11 41 31 19 347 359 317 281 268 340
355 356 357 359 360 1 1 3 360 356 332 17 10 33 358 294 182 253 290 98 317 234 149 142 224 139 53 19 112 351 115 107 136 111 48 51 43 37 78 72 288 102 74 51 19 4 357 13 23 27 41 48 56 22 8 334 336 3 84 52 213 150 153 188 196 250 165 145 194 154 217 231 228 173 98 69 80 70 99 88 49 24 319 304 317 357 356
356 356 357 359 0 1 3 4 5 2 355 31 11 19 6 3 345 304 262 201 121 32 235 120 351 54 71 86 127 118 120 119 8 311 116 106 79 48 323 299 319 48 34 359 348 320 317 38 78 153 139 114 110 108 105 93 55 6 11 153 114 174 189 192 134 276 106 156 164 208 242 256 60 69 72 26 30 21 313 13 15 21 355 8 353 343 346
356 356 357 359 359 2 3 4 5 8 3 341 317 7 9 324 276 265 295 212 96 56 38 55 33 99 99 95 77 131 138 103 61 334 120 100 92 79 90 100 285 58 31 351 42 126 134 133 126 114 111 113 110 102 92 84 86 105 9 336 141 158 197 139 212 266 200 135 176 225 249 279 90 93 91 108 89 360 46 78 317 62 345 345 314 348 345
356 356 356 357 358 1 2 3 4 6 4 344 326 16 0 342 293 317 310 318 95 56 126 90 80 78 82 109 112 89 75 97 92 91 105 127 121 96 39 27 29 32 330 145 146 154 141 124 118 118 115 116 106 96 77 69 66 62 66 30 306 189 213 148 219 265 107 221 192 251 59 120 132 94 75 60 218 125 268 242 171 119 30 325 314 345 331
355 355 356 356 356 359 1 2 2 2 1 351 330 13 1 355 338 319 338 332 99 59 63 120 114 92 92 84 103 114 126 108 98 94 116 67 98 92 82 34 24 344 200 165 178 174 131 158 139 166 153 174 160 164 92 75 49 46 46 43 19 341 273 246 232 146 263 272 246 6 118 179 148 175 166 254 334 354 340 319 21 137 331 348 330 330 336
354 354 354 355 356 358 358 359 2 1 360 348 301 341 13 3 347 317 311 286 116 102 340 82 71 59 80 103 176 171 164 139 179 125 76 117 168 57 35 26 12 44 169 189 159 216 213 174 178 182 152 201 205 148 170 153 82 50 45 48 45 40 305 68 281 183 246 273 261 212 214 265 125 60 97 111 343 312 294 278 269 131 13 28 332 330 339
353 353 353 355 356 357 356 358 359 360 2 348 321 342 30 7 321 275 300 328 323 172 64 22 352 329 34 76 15 325 127 193 85 140 172 156 117 144 99 20 63 185 186 243 265 243 190 222 192 214 197 184 67 155 174 152 161 108 76 62 93 99 139 237 263 273 213 244 259 270 285 64 79 105 97 69 298 291 241 253 254 62 347 19 339 332 343
352 353 353 354 355 355 356 357 357 358 359 360 339 319 17 13 358 335 318 281 310 52 48 20 340 308 252 149 191 185 332 296 208 244 212 163 118 75 114 61 158 212 205 229 201 231 203 233 261 263 84 48 209 58 98 220 181 154 148 174 87 292 256 247 232 247 244 283 265 280 359 80 115 90 72 42 18 241 235 265 92 314 5 342 347 332 340
351 352 353 354 354 354 355 356 357 356 358 352 341 314 9 17 355 313 271 307 37 90 43 9 323 289 15 12 12 53 276 204 217 198 280 81 198 156 35 332 198 144 256 241 192 224 235 230 230 230 177 72 14 224 251 98 208 56 56 0 330 27 203 270 290 266 101 244 259 276 139 101 86 64 49 16 342 266 244 294 41 354 336 346 337 334 330
350 351 352 353 354 354 354 356 357 357 358 355 336 265 47 10 354 334 285 287 297 95 60 53 355 38 44 345 34 29 10 347 338 275 217 197 112 27 318 84 313 193 191 235 209 234 228 181 339 286 252 142 213 300 96 229 114 110 232 210 178 164 199 150 260 242 273 10 278 329 54 72 64 89 54 39 240 241 335 46 289 334 335 339 338 326 328
349 349 350 352 353 352 354 356 356 357 357 356 349 324 311 1 14 358 340 2 42 82 74 50 3 63 21 353 32 78 170 192 15 299 312 353 64 268 211 202 178 243 187 221 213 21 265 210 147 164 244 152 132 56 178 77 13 7 55 16 309 29 280 113 116 81 228 222 262 254 253 112 269 5 199 151 281 36 354 338 343 348 329 326 327 325 327
348 347 348 350 352 352 353 355 356 356 356 354 347 324 357 35 2 5 323 319 316 116 111 78 352 47 21 38 34 24 5 27 8 337 46 8 13 290 254 42 54 296 50 244 270 162 256 204 170 198 16 355 119 233 162 128 132 106 320 358 356 47 268 178 139 342 308 217 245 25 44 75 98 311 331 42 22 354 356 333 328 339 323 329 321 323 330
347 345 346 348 350 351 352 354 355 356 356 355 339 310 334 358 357 359 333 290 314 24 46 43 346 3 43 30 29 12 7 8 24 351 326 39 68 348 36 87 41 5 32 298 184 156 200 56 97 200 176 133 201 284 122 207 179 116 174 258 218 74 353 360 348 75 307 13 39 78 61 56 56 16 59 45 43 324 339 320 314 319 327 340 310 324 320
342 343 342 346 349 350 351 352 354 354 355 355 350 351 347 340 347 338 290 271 178 155 156 167 189 175 171 107 49 8 7 349 323 317 325 310 122 35 1 21 87 21 54 321 338 1 79 202 124 37 127 76 108 139 191 307 89 164 165 76 34 97 30 13 271 111 88 79 16 59 134 53 118 168 73 328 354 348 322 329 323 329 328 316 319 317 319
333 341 341 342 345 348 350 350 352 352 352 352 347 326 345 342 341 339 292 259 296 139 158 170 227 111 43 51 59 91 221 108 349 343 338 297 308 134 137 64 45 184 64 10 324 333 67 21 78 267 162 95 260 197 187 183 107 108 136 154 149 89 177 228 258 86 253 155 138 197 163 180 222 324 23 290 281 328 333 327 321 322 318 314 311 316 312
326 337 338 339 342 345 346 348 348 349 346 349 341 294 270 334 357 348 344 334 92 282 210 124 68 60 20 345 277 217 55 356 304 317 336 191 303 335 60 50 8 6 86 58 257 216 212 175 157 200 140 104 289 113 31 294 138 218 245 113 182 163 182 234 100 215 266 54 123 155 357 311 252 257 276 282 306 323 331 320 316 314 307 302 310 309 307
323 331 334 335 340 341 343 344 344 343 342 342 328 329 359 358 340 332 279 332 282 277 261 150 112 124 330 214 90 38 357 327 21 61 45 37 31 50 98 132 109 28 77 226 268 5 106 100 65 101 148 124 278 303 113 14 63 112 303 72 37 84 196 212 99 282 101 134 140 144 250 276 172 185 294 312 330 326 317 319 313 309 314 320 314 311 307
318 325 330 331 335 337 338 339 339 339 336 336 333 303 311 346 3 12 23 346 311 193 224 155 103 112 20 81 70 279 121 317 152 95 86 57 75 100 102 110 117 153 176 110 55 98 55 80 141 91 29 92 219 56 101 159 165 180 188 108 164 195 227 74 239 234 264 67 100 208 262 188 176 213 346 330 334 312 310 308 310 318 318 317 313 310 308
315 319 325 327 329 333 335 336 336 334 332 324 302 268 250 296 29 10 9 358 339 343 345 39 133 79 140 126 76 19 76 162 82 82 70 87 80 75 90 100 118 117 83 223 148 147 165 143 86 69 94 132 190 121 9 79 207 201 264 124 170 256 46 263 287 319 27 67 79 90 303 301 21 355 337 322 319 319 313 317 319 322 320 317 315 312 311
310 311 317 322 324 328 332 333 334 329 328 318 290 261 217 222 159 34 8 350 319 300 284 298 320 213 194 87 277 139 98 282 80 77 92 89 83 78 71 55 51 53 97 66 72 67 73 79 70 97 79 30 300 124 202 174 217 206 68 78 201 38 11 303 5 341 74 52 69 170 294 314 351 332 326 307 330 315 314 317 324 323 321 317 314 313 311
302 307 315 318 321 324 328 331 327 327 327 314 278 242 227 151 122 38 10 342 338 304 276 234 204 110 120 170 124 104 127 136 121 112 99 96 82 71 66 79 81 36 35 47 25 101 76 89 94 89 80 285 293 119 248 103 230 93 105 126 84 134 179 52 5 330 17 56 57 20 296 301 304 312 302 316 312 315 318 316 318 318 314 318 311 310 308
295 301 310 311 316 316 320 325 324 326 313 302 281 255 288 191 91 71 10 334 326 293 294 286 342 94 162 94 258 45 89 160 143 105 84 82 79 77 75 117 72 321 121 98 70 83 218 124 123 97 110 21 324 234 121 210 212 135 111 113 171 168 191 131 93 38 52 94 241 261 274 262 283 287 271 302 321 323 314 313 317 309 314 307 303 304 304
292 296 301 305 307 311 316 318 321 322 306 296 327 360 33 359 346 332 330 294 292 251 276 234 169 195 145 157 140 69 303 153 185 170 120 244 112 90 94 344 76 22 21 67 89 180 69 72 102 127 175 83 281 310 168 260 292 90 103 154 163 151 125 157 169 135 96 271 275 252 242 253 314 330 327 328 320 318 313 313 311 318 309 301 305 305 307
289 292 298 301 301 304 311 312 309 309 285 319 313 274 269 275 286 286 263 277 246 283 301 280 246 139 201 111 146 123 352 197 192 229 137 334 97 232 132 83 119 111 57 237 141 42 111 179 185 165 89 217 246 141 262 29 60 66 69 119 155 157 172 134 193 166 218 253 296 315 332 330 328 325 324 314 309 311 317 318 321 315 310 313 313 315 318
286 291 296 296 298 305 309 309 301 287 254 255 229 168 125 233 252 209 301 273 287 285 268 267 198 199 142 125 210 116 265 243 140 224 159 93 26 255 100 191 114 228 87 311 93 195 142 234 228 84 162 184 269 254 214 89 83 91 125 129 129 162 166 200 216 223 232 271 303 306 310 310 308 306 295 305 314 318 320 319 319 320 319 317 318 320 325
286 293 296 298 298 303 301 295 271 215 263 257 262 78 29 28 335 220 239 304 264 192 215 211 280 202 164 182 220 118 339 246 168 147 321 105 269 283 165 234 161 247 110 287 207 283 181 96 31 225 155 99 211 234 163 115 105 118 163 152 159 164 200 234 218 233 235 232 262 286 298 300 295 298 313 317 316 320 320 319 321 318 319 321 319 322 326
294 300 301 298 297 290 266 201 230 239 221 242 47 62 28 310 206 229 272 275 298 316 260 177 230 229 207 193 197 111 239 136 84 134 34 135 172 99 264 304 221 106 42 253 260 185 226 111 246 200 96 230 214 44 83 62 129 147 166 153 158 256 335 334 7 213 241 265 279 287 294 302 308 319 319 313 317 319 318 317 318 321 318 318 322 322 320
299 305 299 288 277 203 236 227 142 258 11 352 321 318 301 277 192 227 202 222 189 243 298 306 224 216 269 352 69 102 236 185 161 191 165 218 66 114 233 221 281 85 213 211 211 224 100 111 276 264 194 266 84 74 84 81 130 127 137 121 147 144 134 90 339 308 294 298 302 307 321 319 320 326 322 323 321 318 318 319 323 321 321 320 321 321 320
318 300 285 278 240 244 214 180 120 19 325 287 259 254 182 210 219 179 189 220 146 224 217 245 257 85 125 249 188 64 271 108 227 217 136 61 240 163 222 273 52 240 236 205 116 35 148 211 230 262 157 81 98 97 117 116 118 107 114 127 141 146 117 214 298 299 312 311 311 331 325 323 326 326 324 322 322 320 320 318 316 318 315 315 318 318 314
269 274 256 239 254 252 331 74 25 320 279 248 239 262 204 202 241 209 188 149 174 204 166 243 202 147 193 182 90 76 338 296 171 235 227 95 288 170 187 242 132 247 243 233 142 201 226 205 207 231 226 138 151 131 132 137 138 140 131 133 118 115 89 291 304 312 319 324 323 323 323 322 319 320 318 315 317 315 316 317 320 320 318 316 316 316 313
250 239 234 217 227 67 36 127 142 270 229 253 196 276 236 170 254 172 125 203 202 146 179 199 90 134 320 300 151 140 40 276 245 183 116 116 21 308 80 280 86 254 233 240 117 190 268 231 152 243 189 150 137 138 154 152 147 144 146 148 134 226 289 305 310 311 304 311 314 315 314 312 315 313 316 317 317 318 318 318 320 318 317 317 313 308 311
223 251 235 247 30 352 339 323 287 225 234 219 192 203 262 212 217 345 249 221 210 131 237 62 152 164 159 183 253 135 118 288 47 20 297 71 55 274 224 209 67 269 247 237 108 227 214 260 190 248 83 124 136 145 150 161 149 147 142 141 139 320 303 306 300 301 306 313 315 316 314 312 311 312 313 313 313 313 315 315 316 318 314 311 314 312 313
3 336 348 318 294 288 281 221 232 211 198 267 270 208 215 270 130 218 242 238 160 148 156 193 177 166 141 97 65 90 117 354 331 320 250 176 118 283 14 132 169 260 228 69 96 229 246 239 218 201 124 127 123 141 154 156 160 167 151 138 286 299 306 310 310 318 321 312 311 311 312 308 310 312 312 313 312 310 308 310 308 307 308 310 308 307 316
238 255 279 285 240 215 234 221 165 249 212 179 187 291 225 214 205 216 173 206 41 237 114 354 58 69 81 240 120 12 50 32 263 157 252 85 125 246 235 182 219 226 92 109 235 200 215 241 254 114 125 136 146 151 170 153 154 153 140 98 304 324 310 309 311 314 318 316 316 314 313 310 311 311 311 308 309 309 309 304 302 302 304 306 309 309 315
262 242 225 215 222 163 204 213 168 174 213 226 189 199 192 204 178 190 213 161 152 165 150 180 163 204 143 145 353 133 162 161 251 255 124 104 245 182 203 218 209 67 51 224 221 226 249 254 2 89 126 136 154 152 167 161 170 147 198 159 286 291 297 297 299 302 319 328 323 319 313 310 313 313 314 316 314 310 307 302 301 302 300 301 303 311 318
217 189 204 183 215 153 162 259 220 196 219 193 220 244 194 227 170 194 178 102 203 140 154 180 162 208 116 120 194 114 289 90 117 261 151 188 215 199 247 219 69 218 233 231 202 229 228 242 150 141 154 158 153 158 158 160 159 183 267 289 294 306 313 308 316 318 320 322 323 320 316 318 316 318 318 319 314 310 304 302 305 304 301 302 306 310 323
205 190 178 165 265 265 220 192 146 217 229 216 211 228 234 300 350 103 74 186 132 143 162 154 154 134 125 111 302 86 145 228 198 122 112 227 253 189 88 24 279 258 229 245 234 237 234 234 144 162 155 155 153 159 163 166 174 192 262 294 323 318 318 315 312 314 316 317 319 319 315 315 317 318 314 315 312 309 304 300 301 298 300 298 307 317 324
215 246 273 269 239 182 219 208 206 224 40 186 223 241 333 41 25 29 59 41 164 127 118 113 96 29 137 148 163 163 176 214 234 99 236 210 199 87 208 253 226 210 234 231 235 239 206 129 110 122 146 153 159 166 170 181 203 237 269 294 297 308 317 316 321 320 320 319 317 318 318 317 316 314 309 308 308 310 309 305 303 302 295 296 302 305 312
206 244 259 208 208 179 194 216 285 144 203 279 107 68 28 353 232 169 133 199 36 159 149 150 153 151 138 94 275 46 107 206 180 144 284 10 125 252 194 230 238 228 239 269 257 67 19 76 148 147 153 158 161 172 178 183 205 237 274 291 310 316 321 320 323 322 322 322 322 317 315 315 315 310 307 307 307 307 310 310 308 304 296 291 294 302 312
296 220 216 236 235 231 221 143 212 220 162 176 190 212 185 203 199 100 108 159 174 156 154 213 156 197 116 110 218 177 171 151 221 138 176 215 232 194 205 226 187 230 167 237 339 49 23 82 110 145 161 171 177 188 199 208 227 282 305 310 315 316 314 311 313 315 317 316 317 316 312 315 309 305 303 306 308 313 314 309 305 299 292 291 297 307 314
221 214 265 243 214 216 229 205 230 217 165 174 194 191 179 212 156 106 136 169 150 141 147 100 54 341 79 185 169 267 223 164 296 130 221 212 210 198 248 265 206 256 44 115 310 69 120 160 150 171 184 191 194 210 217 218 233 283 299 305 308 310 307 306 305 308 310 313 310 312 309 304 305 308 308 312 310 306 302 301 301 299 294 292 297 302 312
261 270 251 246 275 185 156 199 197 194 182 182 168 126 173 157 121 123 101 171 169 170 185 184 146 166 156 159 215 201 146 113 213 215 259 256 132 236 232 263 22 66 25 51 13 347 27 149 204 211 191 199 199 207 231 270 289 292 296 297 298 300 301 298 298 299 300 300 304 301 300 302 303 302 301 298 300 301 301 300 303 306 299 292 290 300 307
217 222 218 198 219 281 254 329 335 267 202 117 121 100 240 120 94 74 101 229 188 199 181 133 176 148 170 200 199 65 100 210 245 203 225 189 197 259 242 298 5 20 7 345 339 58 283 259 226 276 276 278 307 294 304 300 294 291 292 294 297 300 299 298 298 297 299 298 299 301 299 297 298 295 294 290 296 309 316 320 321 316 308 304 307 311 306